{"data":{"norad_id":28737,"epoch":"2026-05-25T01:41:01.339296Z","epoch_age_seconds":83184,"freshness":"FRESH","line1":"1 28737U 05024A   26145.07015439  .00007150  00000+0  32320-3 0  9990","line2":"2 28737  97.7305 174.5578 0017577 111.3088 249.0025 15.21129788144517","mean_motion":15.21129788,"eccentricity":0.0017577,"inclination_deg":97.7305,"raan_deg":174.5578,"arg_perigee_deg":111.3088,"mean_anomaly_deg":249.0025,"bstar":0.0003232,"rev_number":14451,"period_min":94.666478255832,"perigee_km":490.33759401354,"apogee_km":514.52554476236,"semimajor_km":6880.568569388,"source":"CELESTRAK","updated_at":"2026-05-25T13:37:55.082536Z"}}